SCP
0 0 0 0 0 0 0 0 0 0 0 0 0 0 0 0 0 0 0 0 0 0 0 0 0 0 0 0 0 0 0 0 0 0 0 0 0 0 0 0 0 0 0
0 0 0 0 0 0 0 0 0 0 0 0 0 0 0 0 0 0 0 0 0 0 0 0 0 0 0 0 0 0 0 0 0 0 0 0 0 0 0 0 0 0 0
0 0 0 0 0 0 0 0 0 0 0 0 0 0 0 0 0 0 0 0 0 0 0 0 0 0 0 0 0 0 0 0 0 0 0 0 0 0 0 0 0 0 0
0 0 0 0 0 0 0 0 0 0 0 0 0 0 0 0 0 0 0 0 0 0 0 0 0 0 0 0 0 0 0 0 0 0 0 0 0 0 0 0 0 0 0
0 0 0 0 0 0 0 0 0 0 0 0 0 0 0 0 0 0 0 0 0 0 0 0 0 0 0 0 0 0 0 0 0 0 0 0 0 0 0 0 0 0 0
0 0 0 0 0 0 0 0 0 0 0 0 0 0 0 0 0 0 0 0 0 0 0 0 0 0 0 0 0 0 0 0 0 0 0 0 0 0 0 0 0 0 0
0 0 0 0 0 0 0 0 0 0 0 0 0 0 0 0 0 0 0 0 0 0 0 0 0 0 0 0 0 0 0 0 0 0 0 0 0 0 0 0 0 0 0
0 0 0 0 0 0 0 0 0 0 0 0 0 0 0 0 0 0 0 0 0 0 0 0 0 0 0 0 0 0 0 0 0 0 0 0 0 0 0 0 0 0 0
0 0 0 0 0 0 0 0 0 0 0 0 0 0 0 0 0 0 0 0 0 0 0 0 0 0 0 0 0 0 0 0 0 0 0 0 0 0 0 0 0 0 0
0 0 0 0 0 0 0 0 0 0 0 0 0 0 0 0 0 0 0 0 0 0 0 0 0 0 0 0 0 0 0 0 0 0 0 0 0 0 0 0 0 0 0
0 0 0 0 0 0 0 0 0 0 0 0 0 0 0 0 0 0 0 0 0 0 0 0 0 0 0 0 0 0 0 0 0 0 0 0 0 0 0 0 0 0 0
0 0 0 0 0 0 0 0 0 0 0 0 0 0 0 0 0 0 0 0 0 0 0 0 0 0 0 0 0 0 0 0 0 0 0 0 0 0 0 0 0 0 0
0 0 0 0 0 0 0 0 0 0 0 0 0 0 0 0 0 0 0 0 0 0 0 0 0 0 0 0 0 0 0 0 0 0 0 0 0 0 0 0 0 0 0
0 0 0 0 0 0 0 0 0 0 0 0 0 0 0 0 0 0 0 0 0 0 0 0 0 0 0 0 0 0 0 0 0 0 0 0 0 0 0 0 0 0 0
0 0 0 0 0 0 0 0 0 0 0 0 0 0 0 0 0 0 0 0 0 0 0 0 0 0 0 0 0 0 0 0 0 0 0 0 0 0 0 0 0 0 0
0 0 0 0 0 0 0 0 0 0 0 0 0 0 0 0 0 0 0 0 0 0 0 0 0 0 0 0 0 0 0 0 0 0 0 0 0 0 0 0 0 0 0
0 0 0 0 0 0 0 0 0 0 0 0 0 0 0 0 0 0 0 0 0 0 0 0 0 0 0 0 0 0 0 0 0 0 0 0 0 0 0 0 0 0 0
0 0 0 0 0 0 0 0 0 0 0 0 0 0 0 0 0 0 0 0 0 0 0 0 0 0 0 0 0 0 0 0 0 0 0 0 0 0 0 0 0 0 0
0 0 0 0 0 0 0 0 0 0 0 0 0 0 0 0 0 0 0 0 0 0 0 0 0 0 0 0 0 0 0 0 0 0 0 0 0 0 0 0 0 0 0
0 0 0 0 0 0 0 0 0 0 0 0 0 0 0 0 0 0 0 0 0 0 0 0 0 0 0 0 0 0 0 0 0 0 0 0 0 0 0 0 0 0 0
0 0 0 0 0 0 0 0 0 0 0 0 0 0 0 0 0 0 0 0 0 0 0 0 0 0 0 0 0 0 0 0 0 0 0 0 0 0 0 0 0 0 0
0 0 0 0 0 0 0 0 0 0 0 0 0 0 0 0 0 0 0 0 0 0 0 0 0 0 0 0 0 0 0 0 0 0 0 0 0 0 0 0 0 0 0
0 0 0 0 0 0 0 0 0 0 0 0 0 0 0 0 0 0 0 0 0 0 0 0 0 0 0 0 0 0 0 0 0 0 0 0 0 0 0 0 0 0 0
0 0 0 0 0 0 0 0 0 0 0 0 0 0 0 0 0 0 0 0 0 0 0 0 0 0 0 0 0 0 0 0 0 0 0 0 0 0 0 0 0 0 0
0 0 0 0 0 0 0 0 0 0 0 0 0 0 0 0 0 0 0 0 0 0 0 0 0 0 0 0 0 0 0 0 0 0 0 0 0 0 0 0 0 0 0
0 0 0 0 0 0 0 0 0 0 0 0 0 0 0 0 0 0 0 0 0 0 0 0 0 0 0 0 0 0 0 0 0 0 0 0 0 0 0 0 0 0 0
Wind_Speed
12 13 13 13 11 10 9 9 9 9 10 11 12 13 14 14 15 16 17 17 18 18 19 20 20 21 21 22 22 22 23 23 23 23 22 22 23 25 25 25 24 17 25
15 14 15 14 12 11 9 9 9 9 9 10 11 12 13 13 14 15 15 16 17 17 18 19 19 20 20 20 21 21 21 21 21 20 20 18 21 24 24 24 24 18 25
16 14 15 15 13 11 10 9 9 9 9 10 10 11 12 12 13 14 14 15 16 16 17 18 18 18 19 19 20 20 20 20 19 18 16 13 15 22 23 23 23 24 24
15 13 14 16 14 12 11 10 9 9 9 9 10 10 11 11 12 13 13 14 14 15 16 16 17 17 18 19 19 20 19 19 18 16 11 12 12 20 23 23 23 23 23
14 13 14 16 15 13 11 10 9 9 9 9 9 9 10 10 11 12 12 13 13 14 14 15 16 16 17 18 19 19 20 19 17 15 12 12 12 20 22 22 22 23 23
15 14 14 16 15 13 12 10 10 9 9 9 8 8 9 9 10 10 11 11 12 12 13 14 15 15 16 17 18 19 20 19 15 12 12 12 13 21 23 23 23 23 23
15 13 13 17 15 14 13 11 10 10 9 9 8 8 8 8 9 9 9 10 10 11 12 13 14 14 15 16 17 18 19 18 12 11 11 11 15 23 23 23 23 23 23
15 14 12 17 16 15 13 12 11 10 10 9 8 8 7 7 7 7 8 8 9 10 11 12 13 13 14 15 16 17 18 17 11 11 11 11 19 22 22 22 22 23 22
14 14 12 14 15 15 14 13 12 11 10 10 9 8 7 6 6 6 6 7 7 8 9 10 11 12 13 14 15 16 16 15 12 9 10 10 20 22 22 22 22 23 22
14 14 14 12 13 13 13 14 13 12 11 11 10 8 8 6 6 5 4 6 6 7 8 9 10 10 11 12 14 14 13 10 10 10 8 11 21 22 22 22 22 23 23
15 15 14 14 13 12 11 13 13 13 12 11 10 10 7 5 5 4 4 4 5 5 6 7 8 8 7 8 11 12 8 7 9 7 7 15 20 20 21 21 22 22 22
21 19 16 15 14 13 10 9 9 9 10 9 8 9 6 5 4 3 5 4 4 4 4 5 5 4 4 4 6 7 5 8 7 6 7 15 18 19 20 20 21 21 21
20 19 18 16 15 14 10 9 7 6 7 8 9 9 6 6 5 5 4 5 4 3 2 1 0 2 4 4 4 5 6 6 5 5 7 13 17 18 19 20 20 20 20
20 21 19 18 15 15 12 10 9 7 7 7 9 10 8 5 6 5 4 4 4 3 2 1 1 2 3 4 5 6 6 5 5 5 7 13 16 18 19 19 19 20 20
20 21 21 20 18 15 13 10 10 10 9 9 9 10 10 7 7 6 5 5 5 4 3 2 1 1 3 4 4 6 7 8 8 8 6 11 15 17 18 19 19 20 20
22 22 21 21 20 17 14 12 11 10 9 9 9 11 12 9 8 7 7 6 5 5 4 3 2 2 3 4 6 7 8 8 8 9 8 9 13 15 17 18 19 19 21
22 22 22 21 21 20 18 16 11 10 10 10 10 12 13 11 10 8 7 7 6 6 6 4 4 3 4 5 7 8 7 9 9 10 10 8 9 12 15 17 18 19 21
21 21 22 18 21 21 18 16 12 11 12 11 10 11 14 14 12 10 8 8 7 6 6 5 4 5 5 6 6 6 7 8 11 10 10 9 8 8 11 15 17 19 21
21 21 21 22 22 21 19 15 14 12 12 11 11 11 13 15 14 11 9 8 8 7 6 6 6 6 6 6 7 7 8 9 10 10 11 11 10 10 9 12 16 19 20
20 20 21 21 21 20 16 14 12 13 13 12 12 12 15 14 15 13 10 11 10 8 8 8 8 7 6 6 7 9 10 10 9 9 10 9 10 11 11 11 11 12 18
20 21 21 21 21 18 15 15 15 15 13 13 13 15 17 16 16 15 11 12 11 10 10 10 9 9 8 6 7 8 9 11 10 8 8 9 10 11 11 12 10 10 10
22 22 22 22 22 22 17 15 13 13 12 13 12 15 18 18 17 15 16 12 12 11 12 12 11 8 7 7 6 6 6 6 8 8 8 9 10 10 11 12 13 13 12
21 23 20 23 23 23 20 13 11 11 10 12 15 15 18 19 19 18 18 15 14 13 12 13 13 13 9 8 8 7 6 5 4 6 10 9 10 10 10 11 14 14 15
19 18 20 21 21 21 21 18 20 17 17 17 14 14 16 20 20 20 19 18 16 14 14 14 14 12 12 9 8 9 9 7 6 6 6 8 10 12 13 12 13 14 16
15 16 17 18 20 20 21 21 21 20 17 13 14 17 18 18 21 21 20 18 17 15 16 15 14 14 12 11 9 8 9 9 11 9 10 9 9 10 11 12 12 13 15
12 14 15 17 19 20 21 22 24 24 21 18 18 16 15 14 16 22 21 19 18 16 17 16 15 16 14 14 11 10 9 9 8 10 12 12 12 11 13 12 13 13 13
Wind_Direction
159 159 163 154 146 136 125 112 99 88 81 76 72 69 66 62 60 58 56 54 51 50 49 48 47 45 45 46 48 47 43 38 35 31 29 25 22 23 24 22 18 17 16
153 158 162 155 149 141 131 120 107 96 87 81 76 72 69 64 62 59 57 55 52 51 50 48 47 46 45 46 47 47 43 38 37 34 31 26 21 22 24 21 18 14 13
153 158 159 156 152 146 138 129 118 105 94 86 80 76 73 67 64 60 57 55 52 51 50 48 46 45 44 45 45 45 43 38 36 34 32 25 17 19 21 20 17 14 12
156 161 159 156 156 152 145 138 127 114 103 93 86 80 76 70 65 62 57 55 52 51 49 47 45 43 42 42 42 41 40 36 33 32 30 24 14 14 17 18 15 13 10
161 162 157 160 160 157 152 145 135 124 112 101 92 86 80 73 67 64 59 55 52 50 49 47 44 41 39 39 38 37 35 32 28 29 26 19 11 9 13 14 11 10 8
166 165 163 165 164 162 158 152 144 133 122 112 101 92 86 79 70 67 62 56 52 50 48 47 44 41 37 36 36 33 30 27 22 23 19 14 6 3 7 8 7 5 4
169 169 170 169 169 167 165 160 153 143 133 123 112 101 93 86 77 70 66 59 53 50 48 46 44 40 36 35 33 31 27 22 20 19 14 9 1 359 1 3 2 0 359
173 174 176 175 175 173 172 168 162 154 145 134 124 114 102 94 86 76 71 64 55 50 48 46 43 39 34 33 31 27 23 18 12 13 9 3 358 355 356 357 356 355 354
179 180 182 183 179 180 180 176 170 164 156 146 136 126 114 102 94 81 73 71 60 52 50 47 44 40 33 31 29 25 19 12 8 7 2 357 352 350 351 351 350 349 348
188 189 187 190 184 182 182 181 177 172 166 157 146 137 126 114 106 94 90 78 68 55 52 49 45 41 34 31 27 22 13 4 6 359 357 351 347 345 344 344 344 342 342
196 197 195 193 187 186 184 180 181 179 175 168 159 151 152 159 149 147 97 88 80 60 54 51 45 39 35 35 28 18 8 1 352 350 348 344 340 338 337 337 336 335 335
198 198 196 197 192 189 186 185 187 183 176 181 172 167 177 175 170 161 123 106 93 75 67 52 46 35 19 20 24 10 1 350 344 339 338 336 332 329 328 328 328 327 328
198 196 198 198 196 194 190 188 186 183 177 185 187 183 185 182 177 189 179 166 166 175 170 127 203 27 18 15 356 353 347 338 328 325 323 326 322 320 319 319 320 320 320
200 200 198 198 199 199 197 194 193 190 188 189 192 193 190 190 196 194 200 193 195 194 197 219 344 15 355 346 339 331 325 317 311 311 308 310 310 310 310 310 312 313 314
204 203 201 199 200 199 201 201 200 200 197 195 192 195 198 197 198 198 200 199 203 200 203 213 240 306 308 313 308 307 305 302 299 297 294 294 298 300 301 302 305 307 308
206 205 202 201 201 200 201 203 203 203 200 200 195 197 200 204 201 200 202 203 205 204 206 214 234 269 284 288 288 289 290 291 287 287 284 287 285 288 292 295 298 301 303
207 205 203 202 202 203 204 206 206 203 200 202 200 200 200 205 206 204 206 204 204 200 203 212 217 245 264 272 275 281 283 282 280 280 279 278 279 277 279 284 289 294 297
208 206 204 200 203 204 205 206 207 205 204 204 202 200 202 205 207 207 209 209 202 200 208 213 223 238 247 260 271 275 275 274 275 274 272 267 267 269 272 275 281 287 292
209 205 204 202 203 204 205 206 209 208 208 208 204 203 202 204 206 208 212 209 201 205 208 211 219 230 244 252 263 272 272 269 270 267 263 261 260 261 266 272 275 280 286
210 206 204 203 205 203 203 207 210 213 213 212 209 207 203 203 205 208 211 210 204 207 208 209 217 220 236 251 264 269 268 267 266 261 259 257 256 257 261 268 273 275 278
208 207 204 203 203 200 200 204 206 210 211 213 213 211 207 206 204 207 210 208 206 211 212 212 216 224 226 230 253 262 258 253 255 252 250 253 255 259 262 265 269 273 278
208 207 206 205 202 202 203 204 208 212 215 214 212 215 212 209 206 206 210 208 206 211 214 213 213 221 225 217 233 266 275 246 223 240 250 255 260 264 264 265 270 274 279
212 209 207 206 204 204 203 202 204 212 218 214 214 214 213 211 209 207 210 210 208 209 212 211 209 216 222 215 217 235 259 279 293 241 247 255 261 264 266 270 272 274 277
219 215 213 210 209 206 201 204 202 205 211 214 212 213 212 211 212 210 210 210 210 209 213 211 210 213 220 227 216 223 236 257 272 287 245 243 252 260 263 267 271 274 275
221 216 216 215 214 209 207 209 211 218 223 221 216 216 214 211 213 211 210 209 210 210 212 211 208 211 214 223 224 221 228 239 238 249 273 276 267 264 267 271 273 273 273
223 216 214 215 217 212 211 212 215 220 222 221 218 216 214 212 211 213 211 210 209 209 209 209 209 211 214 220 225 228 231 234 238 244 263 274 280 280 279 276 274 273 271